Location: Ravensburg
(47.7866°N, 9.6124°E)
Time: 20:48:28
(UTC+02:00)

ITAMSAT 1 - Pass Details

Date: 15 March 2026
Orbit: 782 x 793 km, 98.7° (Epoch: 14 April)

Event Time Altitude Azimuth Distance (km) Brightness Sun altitude
Exits shadow 22:04:18 38° 316° (NW) 1,183 8.9 -34.3°
Drops below altitude 10° 22:07:41 10° 338° (NNW) 2,355 10.8 -34.7°
Sets 22:10:04 0° 343° (NNW) 3,290 11.7 -35.0°
